Location: Houghton
(47.1220°N, 88.5690°W)
Time: 09:42:58
(UTC-04:00)

N. Korean satellite - Visible Passes

Search period start: 23 October 2017 00:00
Search period end: 02 November 2017 00:00
Orbit: 459 x 517 km, 97.2° (Epoch: 22 October)

Date Brightness Start Highest point End Pass type
(mag) Time Alt. Az. Time Alt. Az. Time Alt. Az.
23 Oct 9.0 20:37:59 10° SSW 20:40:51 24° W 20:43:43 10° NW visible
24 Oct 7.7 20:14:03 10° S 20:17:24 44° W 20:20:44 10° NNW visible
25 Oct 10.3 07:39:52 10° ENE 07:41:05 11° E 07:42:19 10° ESE visible
25 Oct 6.4 19:50:31 10° SSE 19:54:00 89° ENE 19:57:29 10° NNW visible
26 Oct 6.8 19:27:22 10° SE 19:30:41 44° ENE 19:34:00 10° N visible
26 Oct 9.9 21:02:50 10° WSW 21:04:28 13° W 21:06:06 10° WNW visible
27 Oct 9.0 20:38:06 10° SSW 20:40:55 23° W 20:43:45 10° NW visible
28 Oct 9.7 08:01:56 10° NE 08:04:43 21° E 08:07:30 10° SE visible
28 Oct 7.7 20:14:07 10° S 20:17:26 44° W 20:20:47 10° NNW visible
29 Oct 10.2 07:39:47 10° ENE 07:41:09 12° E 07:42:31 10° ESE visible
29 Oct 6.4 19:50:35 10° SSE 19:54:02 90° WSW 19:57:31 10° NNW visible
30 Oct 6.7 19:27:24 10° SE 19:30:42 44° ENE 19:34:01 10° N visible
30 Oct 9.9 21:02:55 10° WSW 21:04:30 13° W 21:06:05 10° WNW visible
31 Oct 9.0 20:38:08 10° SSW 20:40:56 23° W 20:43:45 10° NW visible
01 Nov 9.7 08:01:54 10° NE 08:04:44 22° E 08:07:35 10° SE visible
01 Nov 7.7 20:14:08 10° S 20:17:26 43° W 20:20:46 10° NNW visible
